Meteo orario Golce

Oggi, 20 Aprile, Martedi

Tempo Temperatura Precipitazioni Vento Pressione Umidità
00:00 +8°C° 0 mm 2 m/s 736 mm Hg 73%
01:00 +7°C° 0 mm 2 m/s 736 mm Hg 76%
02:00 +7°C° 0 mm 2 m/s 736 mm Hg 78%
03:00 +6°C° 0 mm 2 m/s 735 mm Hg 81%
04:00 +5°C° 0 mm 2 m/s 735 mm Hg 84%
05:00 +6°C° 0 mm 2 m/s 736 mm Hg 80%
06:00 +7°C° 0 mm 2 m/s 736 mm Hg 77%
07:00 +8°C° 0 mm 2 m/s 736 mm Hg 73%
08:00 +10°C° 0 mm 2 m/s 736 mm Hg 66%
09:00 +11°C° 0 mm 3 m/s 736 mm Hg 58%
10:00 +12°C° 0 mm 3 m/s 736 mm Hg 51%
11:00 +13°C° 0 mm 3 m/s 735 mm Hg 48%
12:00 +13°C° 0 mm 3 m/s 735 mm Hg 46%
13:00 +15°C° 0 mm 2 m/s 735 mm Hg 43%
14:00 +15°C° 0 mm 2 m/s 734 mm Hg 44%
15:00 +15°C° 0 mm 2 m/s 734 mm Hg 46%
16:00 +14°C° 0 mm 2 m/s 734 mm Hg 47%
17:00 +13°C° 0 mm 2 m/s 734 mm Hg 54%
18:00 +12°C° 0 mm 2 m/s 734 mm Hg 60%
19:00 +10°C° 0 mm 2 m/s 734 mm Hg 67%
20:00 +11°C° 0.1 mm 1 m/s 734 mm Hg 70%
21:00 +10°C° 0.1 mm 1 m/s 734 mm Hg 73%
22:00 +10°C° 0.1 mm 1 m/s 734 mm Hg 76%
23:00 +9°C° 0 mm 1 m/s 734 mm Hg 78%

Domani, 21 Aprile, Mercoledi

Tempo Temperatura Precipitazioni Vento Pressione Umidità
00:00 +8°C° 0 mm 2 m/s 734 mm Hg 80%
01:00 +8°C° 0 mm 2 m/s 734 mm Hg 82%
02:00 +7°C° 0.1 mm 2 m/s 734 mm Hg 84%
03:00 +7°C° 0.1 mm 2 m/s 734 mm Hg 86%
04:00 +6°C° 0.1 mm 2 m/s 733 mm Hg 88%
05:00 +7°C° 0.1 mm 3 m/s 734 mm Hg 86%
06:00 +8°C° 0.1 mm 3 m/s 734 mm Hg 83%
07:00 +9°C° 0.1 mm 3 m/s 734 mm Hg 80%
08:00 +10°C° 0.3 mm 3 m/s 734 mm Hg 74%
09:00 +11°C° 0.3 mm 4 m/s 734 mm Hg 68%
10:00 +13°C° 0.3 mm 4 m/s 734 mm Hg 61%
11:00 +13°C° 0.1 mm 4 m/s 734 mm Hg 56%
12:00 +14°C° 0.1 mm 5 m/s 733 mm Hg 50%
13:00 +15°C° 0.1 mm 5 m/s 733 mm Hg 44%
14:00 +15°C° 0 mm 5 m/s 733 mm Hg 45%
15:00 +14°C° 0 mm 5 m/s 733 mm Hg 46%
16:00 +14°C° 0 mm 5 m/s 733 mm Hg 48%
17:00 +13°C° 0 mm 4 m/s 733 mm Hg 53%
18:00 +11°C° 0 mm 3 m/s 733 mm Hg 58%
19:00 +10°C° 0 mm 2 m/s 733 mm Hg 64%
20:00 +9°C° 0 mm 2 m/s 733 mm Hg 65%
21:00 +8°C° 0 mm 2 m/s 733 mm Hg 65%
22:00 +8°C° 0 mm 2 m/s 733 mm Hg 66%
23:00 +7°C° 0 mm 3 m/s 733 mm Hg 70%

Dopodomani, 22 Aprile, Giovedi

Tempo Temperatura Precipitazioni Vento Pressione Umidità
00:00 +7°C° 0 mm 3 m/s 734 mm Hg 74%
01:00 +5°C° 0 mm 3 m/s 734 mm Hg 77%
02:00 +5°C° 0 mm 3 m/s 734 mm Hg 83%
03:00 +4°C° 0 mm 3 m/s 734 mm Hg 89%
04:00 +4°C° 0 mm 2 m/s 734 mm Hg 95%
05:00 +3°C° 0.2 mm 3 m/s 735 mm Hg 94%
06:00 +3°C° 0.2 mm 4 m/s 735 mm Hg 93%
07:00 +3°C° 0.2 mm 4 m/s 735 mm Hg 91%
08:00 +2°C° 0.1 mm 5 m/s 736 mm Hg 80%
09:00 +3°C° 0.1 mm 5 m/s 736 mm Hg 68%
10:00 +3°C° 0.1 mm 5 m/s 736 mm Hg 56%
11:00 +4°C° 0 mm 6 m/s 736 mm Hg 51%
12:00 +7°C° 0 mm 6 m/s 736 mm Hg 45%
13:00 +8°C° 0 mm 7 m/s 736 mm Hg 40%
14:00 +8°C° 0 mm 7 m/s 736 mm Hg 40%
15:00 +8°C° 0 mm 7 m/s 736 mm Hg 40%
16:00 +8°C° 0 mm 7 m/s 736 mm Hg 40%
17:00 +6°C° 0 mm 5 m/s 736 mm Hg 46%
18:00 +5°C° 0 mm 4 m/s 736 mm Hg 53%
19:00 +4°C° 0 mm 3 m/s 736 mm Hg 60%
20:00 +3°C° 0 mm 3 m/s 737 mm Hg 64%
21:00 +3°C° 0 mm 3 m/s 737 mm Hg 69%
22:00 +1°C° 0 mm 4 m/s 737 mm Hg 74%
23:00 +1°C° 0 mm 4 m/s 737 mm Hg 79%

23 Aprile, Venerdi

Tempo Temperatura Precipitazioni Vento Pressione Umidità
00:00 +1°C° 0 mm 3 m/s 737 mm Hg 84%
01:00 +1°C° 0 mm 3 m/s 737 mm Hg 89%
02:00 0°C° 0 mm 3 m/s 737 mm Hg 90%
03:00 0°C° 0 mm 3 m/s 738 mm Hg 91%
04:00 0°C° 0 mm 3 m/s 738 mm Hg 92%
05:00 0°C° 0 mm 4 m/s 738 mm Hg 86%
06:00 0°C° 0 mm 4 m/s 738 mm Hg 81%
07:00 +1°C° 0 mm 5 m/s 739 mm Hg 76%
08:00 +3°C° 0.1 mm 5 m/s 739 mm Hg 68%
09:00 +5°C° 0.1 mm 5 m/s 739 mm Hg 59%
10:00 +5°C° 0.1 mm 6 m/s 739 mm Hg 51%
11:00 +5°C° 0.3 mm 6 m/s 739 mm Hg 54%
12:00 +5°C° 0.3 mm 7 m/s 739 mm Hg 56%
13:00 +5°C° 0.3 mm 8 m/s 739 mm Hg 58%
14:00 +4°C° 0.1 mm 8 m/s 739 mm Hg 59%
15:00 +4°C° 0.1 mm 8 m/s 740 mm Hg 60%
16:00 +4°C° 0.1 mm 7 m/s 740 mm Hg 60%
17:00 +3°C° 0 mm 6 m/s 740 mm Hg 63%
18:00 +3°C° 0 mm 6 m/s 740 mm Hg 66%
19:00 +2°C° 0 mm 5 m/s 741 mm Hg 69%
20:00 +1°C° 0 mm 4 m/s 741 mm Hg 72%
21:00 +1°C° 0 mm 4 m/s 741 mm Hg 75%
22:00 +1°C° 0 mm 3 m/s 741 mm Hg 77%
23:00 +1°C° 0 mm 3 m/s 741 mm Hg 78%

24 Aprile, Sabato

Tempo Temperatura Precipitazioni Vento Pressione Umidità
00:00 0°C° 0 mm 4 m/s 741 mm Hg 78%
01:00 0°C° 0 mm 4 m/s 741 mm Hg 79%
02:00 0°C° 0 mm 3 m/s 741 mm Hg 82%
03:00 0°C° 0 mm 3 m/s 741 mm Hg 84%
04:00 -1°C° 0 mm 3 m/s 741 mm Hg 87%
05:00 -1°C° 0 mm 4 m/s 741 mm Hg 82%
06:00 0°C° 0 mm 4 m/s 742 mm Hg 77%
07:00 +3°C° 0 mm 4 m/s 742 mm Hg 72%
08:00 +4°C° 0 mm 4 m/s 742 mm Hg 61%
09:00 +5°C° 0 mm 4 m/s 741 mm Hg 50%
10:00 +7°C° 0 mm 4 m/s 741 mm Hg 39%
11:00 +7°C° 0 mm 5 m/s 741 mm Hg 44%
12:00 +7°C° 0 mm 5 m/s 741 mm Hg 48%
13:00 +7°C° 0 mm 5 m/s 740 mm Hg 53%
14:00 +7°C° 0.1 mm 6 m/s 740 mm Hg 55%
15:00 +7°C° 0.1 mm 6 m/s 740 mm Hg 56%
16:00 +7°C° 0.1 mm 6 m/s 739 mm Hg 58%
17:00 +5°C° 0 mm 6 m/s 739 mm Hg 62%
18:00 +5°C° 0 mm 5 m/s 739 mm Hg 67%
19:00 +4°C° 0 mm 4 m/s 739 mm Hg 71%
20:00 +3°C° 0.1 mm 4 m/s 740 mm Hg 78%
21:00 +2°C° 0.1 mm 3 m/s 740 mm Hg 85%
22:00 +2°C° 0.1 mm 3 m/s 740 mm Hg 92%
23:00 +1°C° 0 mm 3 m/s 740 mm Hg 93%

25 Aprile, Domenica

Tempo Temperatura Precipitazioni Vento Pressione Umidità
00:00 +2°C° 0 mm 2 m/s 740 mm Hg 94%
01:00 +1°C° 0 mm 2 m/s 740 mm Hg 96%
02:00 -1°C° 0 mm 2 m/s 740 mm Hg 95%
03:00 -1°C° 0 mm 2 m/s 740 mm Hg 94%
04:00 -1°C° 0 mm 2 m/s 740 mm Hg 93%
05:00 +1°C° 0 mm 2 m/s 740 mm Hg 83%
06:00 +1°C° 0 mm 3 m/s 740 mm Hg 73%
07:00 +2°C° 0 mm 3 m/s 740 mm Hg 64%
08:00 +3°C° 0 mm 3 m/s 740 mm Hg 56%
09:00 +4°C° 0 mm 4 m/s 740 mm Hg 49%
10:00 +5°C° 0 mm 4 m/s 741 mm Hg 41%
11:00 +6°C° 0 mm 4 m/s 740 mm Hg 41%
12:00 +6°C° 0 mm 4 m/s 740 mm Hg 41%
13:00 +7°C° 0 mm 4 m/s 740 mm Hg 41%
14:00 +6°C° 0.1 mm 5 m/s 740 mm Hg 43%
15:00 +6°C° 0.1 mm 5 m/s 740 mm Hg 46%
16:00 +5°C° 0.1 mm 6 m/s 739 mm Hg 48%
17:00 +5°C° 0.2 mm 5 m/s 739 mm Hg 54%
18:00 +3°C° 0.2 mm 5 m/s 739 mm Hg 60%
19:00 +3°C° 0.2 mm 4 m/s 739 mm Hg 67%
20:00 +1°C° 0 mm 4 m/s 739 mm Hg 70%
21:00 +1°C° 0 mm 3 m/s 740 mm Hg 73%
22:00 0°C° 0 mm 3 m/s 740 mm Hg 77%
23:00 0°C° 0 mm 3 m/s 740 mm Hg 78%
Mostrare altro

Abbiamo bisogno del tuo consenso

Meteoprog e i nostri fornitori di servizi possono memorizzare e accedere a dati personali come cookie, identificatori di dispositivi o altre tecnologie simili sul tuo dispositivo e possono elaborare tali dati per personalizzare i contenuti e gli annunci, nonché fornire funzionalità dei social media e analizzarne il traffico.

  • Archiviare e/o accedere alle informazioni sul tuo dispositivo

    Cookie, identificatori di dispositivi o altre informazioni possono essere memorizzati o resi accessibili sul tuo dispositivo per le finalità sopra indicate.

  • Annunci e contenuti personalizzati, misurazione di annunci e contenuti, approfondimenti sul pubblico e sviluppo di prodotti

    Gli annunci e i contenuti possono essere personalizzati in base a un profilo. È possibile aggiungere più dati per personalizzare meglio annunci e contenuti. È possibile misurare il rendimento degli annunci e dei contenuti. È possibile ricavare informazioni sul pubblico che ha visto gli annunci e i contenuti. Tali dati possono essere utilizzati per sviluppare o migliorare l'esperienza, i sistemi e il software dell'utente.

Cliccando su “Accetto”, acconsenti all'uso di cookie, identificatori di dispositivo, web beacon o altre tecnologie simili. Puoi modificare le impostazioni nel browser del tuo dispositivo.

Per determinati scopi, è possibile fare affidamento su interessi legali, piuttosto che sul consenso. Puoi approfondire questo argomento consultando la nostra Informativa sulla privacy e sui cookie.